STARLINK-3784, 52275

Orbit data source: Space-Track

STARLINK-3784, 52275 is a payload satellite owned by SpaceX/Seattle (US) in LEO that was launched on Thu, 21 Apr 2022 UTC via an FALCON 9 launch vehicle from the Air Force Eastern Test Range (AFETR). Payload-class satellites include a variety of spacecraft equipped with specific instruments for various scientific and technological missions. These include communications satellites like Starlink; space stations such as the ISS; scientific satellites like the Hubble; Earth observation satellites from companies like Planet Labs, Umbra, and HawkEye 360; GPS; miniature CubeSats for education and research; and military/defense satellites.

Loading next visibility...
Identifier
52275, 2022-041Q
Orbit
LEO
Country
Flag of USUS
Related business
Manufacturer
SpaceX/Seattle
Mission
Operational Commercial Communications
Bus & Motor
STARLINK, Unknown motor
Mass
297 kg wet, ~275 kg dry
Launch date (UTC)
2022-04-21 (4 years ago)
Launch vehicle
FALCON 9
Launch site
Air Force Eastern Test Range (AFETR)
Object type
Payload
Rocket body
Debris
Shape & HBR
Box + 1 Pan, 10.1 m
Radar Cross Section
11.087 m², Large (>1 m²)

Expand to show TLE details & history
Last TLE update: 11 hours ago

TLE from 11 hours ago
0 STARLINK-3784
1 52275U 22041Q   26254.50649079  .00000415  00000-0  23434-4 0  9999
2 52275  53.1624 349.6625 0001236  88.0377 272.0767 15.34384595242482
Epoch: 2026-09-11T12:09Z
TLE epoch observation values (Epoch: 2026-09-11T12:09:20.804Z)
Latitude
-0.00002°
Longitude
176.79694°
Altitude
463.62 km
Speed
7.636 km/s
True Right ascension
23h 18m 38s
True Declination
0° 00' 00"
Sunlit
Object was in full shadow at epoch
Visualization orbit readout
Latitude
Unknown
Longitude
Unknown
Altitude
Unknown
Speed
Unknown
Apparent Right ascension
Unknown
Apparent Declination
Unknown
Sunlit
N/A
Visualization observer readout
Local Sidereal Time
15:08:50
Azimuth
Unknown
Elevation
Unknown
Doppler factor
Unknown
Orbital elements
Apogee altitude
463.851 km
Perigee altitude
462.16 km
Semi-major axis
6,841.143 km
Eccentricity
0.00012
Inclination
53.1624°
RAAN
349.6625°
Arg. of periapsis
88.0377°
True anomaly
272.06255°
Mean anomaly
272.0767°
Eccentric anomaly
272.06962°
Mean motion
3.83575 °/min
Orbital period
93.85 mins
BSTAR
0.000023434
Loading maneuver chart data...
Computing Atmospheric mass density...

Documentation

Showing up to 5 results
|